Regional Weather Roundup
Issued by NWS

Home | Current Version | Previous Version | Text Only | Print | Product List | Glossary Off
Versions: 1 2 3 4 5 6 7 8 9 10 11 12 13 14 15 16 17 18 19 20 21 22 23 24 25 26 27 28 29 30 31 32 33 34 35 36 37 38 39 40 41 42 43 44 45 46 47 48 49 50

000
ASUS45 KTFX 011104
RWRMT
MONTANA HOURLY WEATHER ROUNDUP
NATIONAL WEATHER SERVICE GREAT FALLS MT
504 AM MDT FRI AUG 1 2014

NOTE: "FAIR" INDICATES FEW OR NO CLOUDS BELOW 12000 FEET WITH NO
SIGNIFICANT WEATHER AND/OR OBSTRUCTIONS TO VISIBILITY.

* THESE STATIONS ARE NOT UNDER NWS QUALITY CONTROL. THEY DO NOT
   REPORT WEATHER SUCH AS PRECIPITATION OR FOG.

MTZ001>007-043-011200-
WEST OF THE DIVIDE
CITY           SKY/WX    TMP DP  RH WIND       PRES   REMARKS
KALISPELL      PTCLDY    55  48  77 CALM      30.09R
MISSOULA       PTCLDY    59  43  56 CALM      30.14R
BUTTE          PTCLDY    52  39  61 S3        30.28S
MULLAN PASS    CLOUDY    70  27  20 NW3       30.27F
* ESSEX        N/A      N/A N/A N/A N/A        N/A
* LINCOLN      N/A       44  43  96 S1         N/A
* LOOKOUT PASS N/A       62  40  45 N1         N/A
* RONAN APT    MOCLDY    57  48  72 N/A        N/A
* SEELEY LAKE  N/A       46  40  80 NE1        N/A
* THOMP F APT  MOCLDY    54  39  57 N3G8       N/A
$$

MTZ008-052>055-011200-
SOUTHWEST MONTANA
CITY           SKY/WX    TMP DP  RH WIND       PRES   REMARKS
BOZEMAN        PTCLDY    50  43  77 CALM      30.21R
DILLON         PTCLDY    52  43  72 S7        30.24S
W YELLOWSTONE  CLEAR     39  37  93 CALM      30.35S
* THREE FORKS  PTCLDY    50  50 100 N/A        N/A
* BOULDER HILL N/A       59  35  41 SW7        N/A
* MONIDA PASS  N/A       47  41  80 SW2        N/A
* RAYNOLDS PAS N/A       46  13  26 N/A        N/A
* WHITEHALL    N/A       55  39  55 NE1        N/A
* WISE RIVER   N/A       53  41  64 SW2        N/A
$$

MTZ009>010-012-014-046-048-049-054-011200-
EAST SLOPES AND CENTRAL MONTANA
CITY           SKY/WX    TMP DP  RH WIND       PRES   REMARKS
CUT BANK       PTCLDY    55  54  96 W9        30.18S
GREAT FALLS    CLEAR     54  45  72 W9        30.14R
HELENA         PTCLDY    61  41  48 CALM      30.17S
MALMSTROM AFB  CLEAR     63  45  52 W8        30.15S
* CONRAD       PTCLDY    54  50  86 N/A        N/A
* DEARBORN     N/A       53  44  72 N/A        N/A
* EAST GLACIER N/A       56  48  75 NW6        N/A
* MONARCH      N/A       54  38  55 N1         N/A
* PENDROY      N/A       60  50  70 NW8G13     N/A
* SAINT MARY   N/A       48  47  96 S3         N/A
* SWEET GRASS  N/A       65  57  75 NW10       N/A
$$

MTZ011-013-016-021-035-040-045-047-050-051-011200-
NORTH CENTRAL MONTANA
CITY           SKY/WX    TMP DP  RH WIND       PRES   REMARKS
HAVRE          CLEAR     57  46  67 E3        30.08S
LEWISTOWN      CLEAR     55  43  64 SE8       30.17R
* CHESTER      N/A       63  48  58 N3         N/A
* DENTON       N/A       57  44  62 S9         N/A
* GEYSER       N/A       54  41  62 SW8        N/A
* JUDITH GAP   N/A       62  45  54 N/A        N/A
* LOMA         N/A       62  44  52 W7         N/A
$$

MTZ017>020-022>027-061-062-011200-
NORTHEAST MONTANA
CITY           SKY/WX    TMP DP  RH WIND       PRES   REMARKS
GLASGOW        MOCLDY    66  57  73 E5        30.02S
GLENDIVE       MOCLDY    64  52  65 NE6       30.02S
JORDAN         PTCLDY    61  43  52 NW8       30.04F
SIDNEY         PTCLDY    57  54  90 N8        30.02S
WOLF POINT     CLOUDY    70  57  64 NE13      30.02R
* BEAVER HILL  N/A       61  51  70 SE10       N/A
* CIRCLE       N/A       68  48  49 NW2        N/A
* LINDSAY DVD  N/A       63  46  54 N/A        N/A
* NAVAJO       N/A       63  58  84 NW11G16    N/A
$$

MTZ028>042-056>058-011200-
SOUTHCENTRAL AND SOUTHEAST MONTANA
CITY           SKY/WX    TMP DP  RH WIND       PRES   REMARKS
BAKER          MOCLDY    55  48  77 SE5       30.05F
BILLINGS       MOCLDY    64  43  47 SW9       30.13R
LIVINGSTON     PTCLDY    54  39  57 CALM      30.21S
MILES CITY     PTCLDY    61  45  56 W7        30.01S
* LAUREL APT   MOCLDY    61  39  44 N/A        N/A
* ROUNDUP APT  MOCLDY    70  39  32 N/A        N/A
* ALZADA       N/A       62  45  54 E4         N/A
* HYSHAM       N/A       68  38  33 S1         N/A
* LAME DEER    N/A       69  37  31 NW4G9      N/A
* REED POINT   N/A       56  46  69 W3         N/A
* ROSCOE HILL  N/A       64  38  38 S8         N/A
$$

REGIONAL REPORTS...DAKOTAS
CITY           SKY/WX    TMP DP  RH WIND       PRES   REMARKS
WILLISTON      PTCLDY    66  57  73 VRB3      30.03F
DICKINSON      CLEAR     57  54  90 S8        30.03F
CROSBY         N/A       54  54 100 CALM      30.09R
TIOGA          PTCLDY    55  55 100 E7        30.09F
WATFORD CITY   CLEAR     57  55  93 CALM      30.02S
BISMARCK       CLEAR     57  55  93 NE7       30.07S
GRAND FORKS    FOG       57  57 100 NW3       30.04R
FARGO          CLEAR     61  57  87 W3        30.03S
BUFFALO SD     PTCLDY    61  48  62 SE5       30.00F
RAPID CITY     CLEAR     61  48  62 SW5       30.10S
$$

REGIONAL REPORTS...WYOMING/IDAHO/WASHINGTON
CITY           SKY/WX    TMP DP  RH WIND       PRES   REMARKS
GILLETTE       CLEAR     63  43  48 S15       30.13S
SHERIDAN       PTCLDY    54  43  67 S6        30.13S
CODY           PTCLDY    63  41  45 SW6       30.22S
YELLOWSTONE LA PTCLDY    37  36  96 NW3       30.44S
SALMON         MOCLDY    61  48  62 CALM      30.17S
MULLAN PASS    CLOUDY    70  27  20 NW3       30.27S
SAND POINT     PTCLDY    54  46  74 CALM      30.04F
SPOKANE        MOCLDY    72  36  27 S6        30.02S

$$




USA.gov is the U.S. government's official web portal to all federal, state and local government web resources and services.